User: anonymous   Login
Location: Brachbach
(49.1847°N, 9.7240°E)
Time: 14:11:21
(UTC+00:00)
Language:

ATLAS 2AS CENTAUR R/B - Orbit

View from above orbital plane
View from above orbital plane
View from above satellite
View from above satellite

Ground track
Ground track

The orbit data is extracted from the following two-line orbital elements,

1 28096U 03054B   24202.80919321  .00000004  00000-0  15858-3 0  9994
2 28096  63.6808 353.1781 0115257 167.3089 193.0883 13.40979724  9031
Epoch (UTC): 20 July 2024 19:25:14
Eccentricity: 0.0115257
inclination: 63.6808°
perigee height: 1019 km
apogee height: 1192 km
right ascension of ascending node: 353.1781°
argument of perigee: 167.3089°
revolutions per day: 13.40979724
mean anomaly at epoch: 193.0883°
orbit number at epoch: 903

The dashed part of the orbit path shows where the satellite is in the earth's shadow,  

DLR